DECAYED
Showing default

TEVEL 1, 51013 (Decayed)

Orbit data source: Space-Track

TEVEL 1, 51013 was a payload satellite owned by Herzliya (IL) in LEO that was launched on Thu, 13 Jan 2022 UTC via an FALCON 9 launch vehicle from the Air Force Eastern Test Range (AFETR). Payload-class satellites include a variety of spacecraft equipped with specific instruments for various scientific and technological missions. These include communications satellites like Starlink; space stations such as the ISS; scientific satellites like the Hubble; Earth observation satellites from companies like Planet Labs, Umbra, and HawkEye 360; GPS; miniature CubeSats for education and research; and military/defense satellites.

Not visible in the next 10 days
Identifier
51013, 2022-002AF
Orbit
Decayed
Last TLE update
11 months ago
Origin
Manufacturer
Herzliya
Mission
Decayed Amateur Communications
Bus & Motor
CUBESAT 1U, Unknown motor
Mass
1 kg wet, 1 kg dry
Launch date (UTC)
2022-01-13 (3 years ago)
Launch vehicle
FALCON 9
Launch site
Air Force Eastern Test Range (AFETR)
Object type
Payload
Rocket body
Debris
Shape & HBR
Box, 0.1 m
Radar Cross Section
0.015 m², Small (<0.1 m²)

Expand to show TLE details & history

TLE from 11 months ago
0 TEVEL 1
1 51013U 22002AF  24217.47990832  .17024539  25488-5  26344-3 0  9999
2 51013  97.3517 296.8662 0017808 259.4091 100.5207 16.47113739142696
Epoch: 2024-08-04T11:31Z
TLE epoch observation values (Epoch: 2024-08-04T11:31:04.078Z)
Latitude
-0°
Longitude
170.57373°
Altitude
152.351 km
Speed
7.813 km/s
True Right ascension
19h 47m 27s
True Declination
0° 00' 00"
Sunlit
Object was in full shadow at epoch
Visualization orbit readout
Visualization observer readout
Orbital elements
Apogee altitude
155.357 km
Perigee altitude
132.129 km
Semi-major axis
6,521.88 km
Eccentricity
0.00178
Inclination
97.3517°
RAAN
296.8662°
Arg. of periapsis
259.4091°
True anomaly
Unknown
Mean anomaly
100.5207°
Eccentric anomaly
Unknown
Mean motion
4.12082 °/min
Orbital period
87.36 mins
BSTAR
0.00026344
Loading maneuver chart data...
Loading SW <> Apogee altitude chart data...

TEVEL 1 Visibility

Observer location: undefined°, undefined°

This satellite is decayed
Span
Click to sort rows by Start time (UTC) header in descending order
Start Az.
Max El. time (UTC)
Max El. Az.
Max El.
End time (UTC)
End Az.
|